EW2295 Weather Reports


Display with metric or nautical units.
time (UTC)temp
F
wind
direction
speed
MPH
gust
MPH
rain 1hr
in
rain 24hr
in
rain mn
in
humidity
%
barometer
mb
20221206144045 38 0 0.0 0.0 0.01 0.35 0.31 96 1018.3
20221206143547 38 0 0.0 0.0 0.01 0.35 0.31 96 1018.4
20221206143101 38 0 0.0 0.0 0.01 0.34 0.30 96 1018.4
20221206142548 38 0 0.0 0.0 0.01 0.34 0.30 96 1018.4
20221206142046 38 0 0.0 0.0 0.01 0.34 0.30 96 1018.5
20221206141602 38 0 0.0 0.0 0.01 0.34 0.30 96 1018.5
20221206141045 38 0 0.0 0.0 0.02 0.34 0.30 96 1018.3
20221206140545 38 0 0.0 0.0 0.02 0.34 0.30 96 1018.4
20221206140114 38 0 0.0 0.0 0.02 0.34 0.30 96 1018.3
20221206135545 38 0 0.0 0.0 0.02 0.34 0.29 96 1018.3
20221206135045 38 0 0.0 0.0 0.02 0.34 0.29 96 1018.4
20221206134550 38 0 0.0 0.0 0.02 0.34 0.29 96 1018.3
20221206134045 38 0 0.0 0.0 0.03 0.34 0.29 96 1018.3
20221206133545 38 0 0.0 0.0 0.03 0.34 0.29 96 1018.3
20221206133105 38 0 0.0 0.0 0.02 0.33 0.29 96 1018.4
20221206132545 38 0 0.0 0.0 0.02 0.33 0.29 96 1018.3
20221206132047 38 0 0.0 8.0 0.03 0.33 0.29 96 1018.3
20221206131558 38 0 0.0 8.0 0.03 0.33 0.29 96 1018.3
20221206131044 39 0 0.0 0.0 0.03 0.33 0.28 96 1018.5
20221206130541 39 0 0.0 0.0 0.03 0.33 0.28 96 1018.5
20221206130059 39 0 0.0 0.0 0.03 0.33 0.28 96 1018.5
20221206125545 39 0 0.0 0.0 0.03 0.33 0.27 96 1018.5
20221206125045 39 0 0.0 0.0 0.03 0.33 0.27 96 1018.4
20221206124603 39 0 0.0 0.0 0.03 0.33 0.27 96 1018.5
20221206124045 39 0 0.0 0.0 0.03 0.33 0.26 96 1018.4
20221206123546 39 0 0.0 0.0 0.03 0.33 0.26 96 1018.4
20221206123103 39 0 0.0 0.0 0.03 0.33 0.26 96 1018.5
20221206122542 39 0 0.0 0.0 0.03 0.33 0.26 96 1018.5
20221206122042 38 0 0.0 0.0 0.03 0.32 0.25 96 1018.5
20221206121600 38 0 0.0 0.0 0.03 0.32 0.25 96 1018.6
20221206121045 38 0 0.0 0.0 0.03 0.31 0.25 96 1018.6
20221206120547 38 0 0.0 0.0 0.03 0.31 0.25 96 1018.5
20221206120057 38 0 0.0 0.0 0.03 0.31 0.25 96 1018.5
20221206115546 38 0 0.0 0.0 0.03 0.30 0.24 96 1018.5
20221206115048 38 0 0.0 0.0 0.03 0.30 0.24 96 1018.6
20221206114558 38 0 0.0 0.0 0.04 0.30 0.24 96 1018.6
20221206114048 38 0 0.0 0.0 0.03 0.29 0.23 96 1018.7
20221206113543 38 0 0.0 0.0 0.04 0.29 0.23 96 1018.7
20221206113101 38 0 0.0 0.0 0.03 0.29 0.22 96 1018.7
20221206112544 38 0 0.0 0.0 0.03 0.29 0.22 96 1018.8
20221206112044 38 0 0.0 0.0 0.03 0.28 0.22 96 1018.8
20221206111600 38 0 0.0 0.0 0.03 0.28 0.22 96 1018.7
20221206111043 38 0 0.0 0.0 0.04 0.28 0.22 96 1018.8
20221206110545 38 0 0.0 0.0 0.03 0.27 0.21 96 1018.9
20221206110100 38 0 0.0 0.0 0.03 0.26 0.20 96 1018.8
20221206105541 37 0 0.0 0.0 0.03 0.26 0.20 96 1018.9
20221206105045 37 0 0.0 0.0 0.03 0.26 0.20 96 1018.9
20221206104606 37 0 0.0 0.0 0.03 0.25 0.19 96 1019.0
20221206104045 37 0 0.0 0.0 0.03 0.25 0.19 96 1019.1
20221206103546 37 0 0.0 0.0 0.03 0.25 0.18 96 1018.9
20221206103054 37 0 0.0 0.0 0.03 0.25 0.18 96 1019.2
20221206102545 36 0 0.0 0.0 0.02 0.24 0.18 96 1019.1
20221206102044 36 0 0.0 0.0 0.02 0.24 0.18 96 1019.2
20221206101601 36 0 0.0 0.0 0.03 0.24 0.18 96 1019.3
20221206101044 36 0 0.0 0.0 0.02 0.23 0.17 96 1019.2
20221206100542 36 0 0.0 0.0 0.03 0.23 0.17 96 1019.2
20221206100054 36 0 0.0 0.0 0.03 0.23 0.17 96 1019.3
20221206095545 36 0 0.0 0.0 0.02 0.22 0.16 96 1019.4
20221206095044 36 0 0.0 0.0 0.02 0.22 0.16 96 1019.2
20221206094648 36 0 0.0 0.0 0.03 0.22 0.16 96 1019.3
20221206094051 36 0 0.0 0.0 0.02 0.22 0.15 96 1019.2
20221206093545 36 0 0.0 0.0 0.02 0.22 0.15 96 1019.2
20221206093108 35 0 0.0 0.0 0.02 0.22 0.15 96 1019.2
20221206092547 35 0 0.0 0.0 0.03 0.22 0.15 96 1019.4
20221206092047 35 0 0.0 0.0 0.03 0.22 0.15 96 1019.2
20221206091601 35 0 0.0 0.0 0.02 0.21 0.14 96 1019.2
20221206091049 35 0 0.0 0.0 0.03 0.21 0.14 96 1019.3
20221206090547 35 0 0.0 0.0 0.02 0.20 0.14 96 1019.1
20221206090105 35 0 0.0 0.0 0.02 0.20 0.14 96 1019.2
20221206085546 35 0 0.0 0.0 0.03 0.20 0.14 96 1019.2
20221206085047 35 0 0.0 0.0 0.03 0.20 0.14 96 1019.2
20221206084602 35 0 0.0 0.0 0.02 0.19 0.13 96 1019.1
20221206084046 35 0 0.0 0.0 0.02 0.19 0.13 96 1018.9
20221206083547 35 0 0.0 0.0 0.02 0.19 0.13 96 1019.0
20221206083103 35 0 0.0 0.0 0.03 0.19 0.13 96 1019.0
20221206082546 35 0 0.0 0.0 0.02 0.18 0.12 96 1018.9
20221206082046 35 0 0.0 0.0 0.02 0.18 0.12 96 1018.9
20221206081600 35 0 0.0 0.0 0.02 0.18 0.12 96 1019.0
20221206081047 35 0 0.0 0.0 0.01 0.18 0.11 96 1018.9
20221206080546 35 0 0.0 0.0 0.02 0.18 0.11 96 1019.1
20221206080106 35 0 0.0 0.0 0.02 0.18 0.11 96 1018.8
20221206075551 35 0 0.0 0.0 0.01 0.17 0.11 96 1018.9
20221206075047 34 0 0.0 0.0 0.01 0.17 0.11 96 1018.8
20221206074641 34 0 0.0 0.0 0.01 0.17 0.11 96 1018.8
20221206074047 34 0 0.0 0.0 0.01 0.17 0.11 96 1018.7
20221206073546 34 0 0.0 1.0 0.02 0.17 0.11 96 1018.7
20221206073111 34 0 0.0 1.0 0.01 0.16 0.10 96 1018.8
20221206072547 34 0 0.0 0.0 0.01 0.16 0.10 96 1018.8
20221206072047 34 0 0.0 0.0 0.01 0.16 0.10 96 1018.6
20221206071610 34 0 0.0 0.0 0.01 0.16 0.10 96 1018.7
20221206071046 34 0 0.0 0.0 0.01 0.16 0.10 96 1018.7
20221206070546 34 0 0.0 0.0 0.00 0.15 0.09 96 1018.7
20221206070102 34 0 0.0 0.0 0.01 0.15 0.09 96 1018.6
20221206065546 34 0 0.0 0.0 0.01 0.16 0.09 96 1018.7
20221206065051 34 0 0.0 0.0 0.01 0.16 0.09 96 1018.7
20221206064557 34 0 0.0 0.0 0.01 0.16 0.09 96 1018.6
20221206064046 34 0 0.0 0.0 0.01 0.16 0.09 96 1018.7
20221206063543 34 0 0.0 0.0 0.01 0.15 0.08 96 1018.6
20221206063058 34 0 0.0 0.0 0.01 0.15 0.08 96 1018.7
20221206062543 34 0 0.0 0.0 0.01 0.15 0.08 96 1018.7
20221206062045 34 0 0.0 0.0 0.01 0.15 0.08 95 1018.7
20221206061557 34 0 0.0 0.0 0.01 0.15 0.08 95 1018.7
20221206061045 34 0 0.0 0.0 0.01 0.15 0.08 95 1018.6
20221206060544 34 0 0.0 0.0 0.00 0.14 0.07 95 1018.8
20221206060102 34 0 0.0 0.0 0.00 0.14 0.07 95 1018.6
20221206055542 34 0 0.0 0.0 0.00 0.16 0.07 95 1018.6
20221206055042 34 0 0.0 0.0 0.01 0.16 0.07 95 1018.7
20221206054559 34 0 0.0 0.0 0.01 0.16 0.07 95 1018.7
20221206054042 34 0 0.0 0.0 0.01 0.16 0.07 95 1018.6
20221206053544 34 0 0.0 0.0 0.00 0.15 0.07 95 1018.8
20221206053102 34 0 0.0 0.0 0.00 0.15 0.07 95 1018.7
20221206052543 34 0 0.0 0.0 0.00 0.15 0.07 95 1018.7
20221206052042 34 0 0.0 0.0 0.00 0.15 0.07 95 1018.7
20221206051600 34 0 0.0 0.0 0.00 0.15 0.07 96 1018.7
20221206051042 34 0 0.0 0.0 0.01 0.15 0.07 96 1018.8
20221206050544 34 0 0.0 0.0 0.01 0.15 0.07 96 1018.8
20221206050121 34 0 0.0 0.0 0.01 0.15 0.07 96 1018.7
20221206045542 33 0 0.0 0.0 0.00 0.15 0.06 96 1018.8
20221206045044 33 0 0.0 0.0 0.00 0.15 0.06 96 1018.7
20221206044601 34 0 0.0 0.0 0.00 0.15 0.06 95 1018.7
20221206044043 33 0 0.0 0.0 0.00 0.15 0.06 95 1018.8
20221206043541 33 0 0.0 0.0 0.00 0.15 0.06 96 1018.9
20221206043056 33 0 0.0 0.0 0.00 0.15 0.06 96 1018.8
20221206042544 33 0 0.0 0.0 0.01 0.15 0.06 96 1018.8
20221206042041 33 0 0.0 0.0 0.01 0.15 0.06 96 1018.8
20221206041559 33 0 0.0 0.0 0.01 0.15 0.06 96 1018.8
20221206041045 33 0 0.0 0.0 0.00 0.14 0.05 95 1018.9
20221206040541 33 0 0.0 0.0 0.00 0.14 0.05 95 1018.8
20221206040107 33 0 0.0 0.0 0.01 0.14 0.05 95 1018.9
20221206035545 33 0 0.0 0.0 0.01 0.14 0.05 95 1018.9
20221206035044 33 0 0.0 0.0 0.01 0.14 0.05 95 1018.8
20221206034603 33 0 0.0 0.0 0.01 0.14 0.05 95 1018.9
20221206034041 33 0 0.0 0.0 0.01 0.14 0.05 95 1018.9
20221206033541 33 0 0.0 0.0 0.02 0.14 0.05 95 1018.9
20221206033055 33 0 0.0 0.0 0.02 0.14 0.05 95 1018.9
20221206032605 33 0 0.0 0.0 0.01 0.14 0.04 95 1018.9
20221206032046 33 0 0.0 0.0 0.01 0.14 0.04 95 1018.9
20221206031609 33 0 0.0 0.0 0.01 0.14 0.04 95 1018.9
20221206031044 33 0 0.0 0.0 0.02 0.14 0.04 95 1018.9
20221206030546 33 0 0.0 0.0 0.02 0.14 0.04 95 1019.0
20221206030112 33 0 0.0 0.0 0.01 0.13 0.03 95 1018.9
20221206025545 33 0 0.0 0.0 0.01 0.13 0.03 95 1018.9
20221206025046 33 0 0.0 0.0 0.01 0.13 0.03 95 1018.8
20221206024604 33 0 0.0 0.0 0.01 0.13 0.03 95 1018.9
20221206024046 33 0 0.0 0.0 0.01 0.13 0.03 95 1019.0
20221206023545 33 0 0.0 0.0 0.00 0.12 0.03 95 1019.2
20221206023110 33 0 0.0 0.0 0.00 0.12 0.03 95 1018.9
20221206022546 33 0 0.0 0.0 0.00 0.12 0.03 95 1018.9
20221206022045 33 0 0.0 0.0 0.00 0.12 0.03 95 1019.2
20221206021611 33 0 0.0 0.0 0.00 0.12 0.03 95 1019.1
20221206021045 33 0 0.0 0.0 0.00 0.11 0.02 95 1019.1
20221206020546 33 0 0.0 0.0 0.00 0.11 0.02 95 1019.1
20221206020105 33 0 0.0 0.0 0.00 0.11 0.02 95 1019.3
20221206015545 33 0 0.0 0.0 0.00 0.11 0.02 95 1019.1
20221206015044 33 0 0.0 0.0 0.00 0.11 0.02 95 1019.2
20221206014602 33 0 0.0 0.0 0.00 0.11 0.02 95 1019.1
20221206014045 33 0 0.0 0.0 0.00 0.11 0.02 95 1019.2
20221206013544 33 0 0.0 0.0 0.00 0.11 0.02 95 1019.3
20221206013110 33 0 0.0 0.0 0.00 0.11 0.02 95 1019.2
20221206012544 33 0 0.0 0.0 0.00 0.11 0.02 95 1019.2
20221206012046 33 0 0.0 0.0 0.00 0.11 0.02 95 1019.2
20221206011609 33 0 0.0 0.0 0.01 0.11 0.02 95 1019.2
20221206011046 33 0 0.0 0.0 0.01 0.11 0.02 95 1019.2
20221206010547 33 0 0.0 0.0 0.01 0.11 0.02 95 1019.1
20221206010112 33 0 0.0 0.0 0.01 0.11 0.02 95 1019.2
20221206005545 33 0 0.0 0.0 0.00 0.11 0.01 95 1019.2
20221206005046 33 0 0.0 0.0 0.00 0.11 0.01 95 1019.1
20221206004620 33 0 0.0 0.0 0.00 0.11 0.01 95 1019.0
20221206004045 33 0 0.0 0.0 0.00 0.11 0.01 95 1019.1
20221206003544 33 0 0.0 0.0 0.00 0.11 0.01 95 1019.1
20221206003100 33 0 0.0 4.0 0.00 0.11 0.01 95 1019.1
20221206002544 33 0 0.0 4.0 0.00 0.11 0.01 95 1019.1
20221206002045 33 0 0.0 4.0 0.00 0.11 0.01 95 1019.1
20221206001612 33 221 0.0 4.0 0.00 0.10 0.00 95 1019.2
20221206001048 33 0 0.0 4.0 0.00 0.10 0.00 95 1019.2
20221206000545 33 0 0.0 4.0 0.00 0.10 0.00 95 1019.2
20221206000107 33 0 0.0 0.0 0.00 0.10 0.00 95 1019.3
20221205235545 33 0 0.0 0.0 0.00 0.10 0.00 95 1019.2
20221205235045 33 0 0.0 0.0 0.00 0.10 0.00 95 1019.3
20221205234617 33 0 0.0 0.0 0.00 0.10 0.00 95 1019.2
20221205234046 33 0 0.0 0.0 0.00 0.10 0.00 95 1019.1
20221205233548 33 0 0.0 0.0 0.00 0.10 0.00 95 1019.1
20221205233100 33 0 0.0 0.0 0.00 0.10 0.00 95 1019.1
20221205232550 33 0 0.0 0.0 0.00 0.10 0.00 95 1019.1
20221205232045 33 0 0.0 0.0 0.00 0.10 0.00 95 1019.2
20221205231608 33 0 0.0 0.0 0.00 0.10 0.00 95 1019.2
20221205231050 33 0 0.0 0.0 0.00 0.09 0.00 95 1019.3
20221205230546 33 0 0.0 0.0 0.00 0.09 0.00 95 1019.3
20221205230117 33 0 0.0 0.0 0.00 0.09 0.00 95 1019.3
20221205225547 33 0 0.0 0.0 0.00 0.09 0.09 95 1019.4
20221205225046 33 0 0.0 0.0 0.00 0.09 0.09 95 1019.4
20221205224600 32 0 0.0 0.0 0.00 0.09 0.09 95 1019.4
20221205224047 32 0 0.0 0.0 0.00 0.09 0.09 95 1019.5
20221205223545 32 0 0.0 0.0 0.00 0.09 0.09 95 1019.4
20221205223111 32 0 0.0 0.0 0.00 0.09 0.09 95 1019.4
20221205222545 32 0 0.0 0.0 0.00 0.09 0.09 95 1019.3
20221205222048 32 0 0.0 0.0 0.00 0.09 0.09 95 1019.4
20221205221609 32 0 0.0 0.0 0.00 0.09 0.09 95 1019.4
20221205221044 32 0 0.0 0.0 0.00 0.08 0.08 95 1019.5
20221205220545 32 0 0.0 0.0 0.00 0.08 0.08 95 1019.4
20221205220109 32 0 0.0 0.0 0.00 0.08 0.08 95 1019.4
20221205215545 32 0 0.0 0.0 0.00 0.08 0.08 95 1019.3
20221205215045 32 0 0.0 0.0 0.00 0.08 0.08 95 1019.3
20221205214604 32 0 0.0 0.0 0.00 0.08 0.08 95 1019.4
20221205214046 32 0 0.0 0.0 0.00 0.08 0.08 95 1019.5
20221205213547 32 0 0.0 0.0 0.00 0.08 0.08 95 1019.5
20221205213109 32 0 0.0 0.0 0.00 0.08 0.08 95 1019.6
20221205212545 32 0 0.0 0.0 0.00 0.08 0.08 95 1019.6
20221205212045 32 0 0.0 0.0 0.00 0.08 0.08 95 1019.6
20221205211554 32 0 0.0 0.0 0.00 0.08 0.08 95 1019.6
20221205211051 32 0 0.0 2.0 0.00 0.08 0.08 95 1019.5
20221205210547 32 0 0.0 2.0 0.00 0.08 0.08 95 1019.7
20221205210058 32 0 0.0 0.0 0.00 0.08 0.08 95 1019.6
20221205205547 32 0 0.0 0.0 0.00 0.08 0.08 95 1019.6
20221205205136 32 0 0.0 0.0 0.00 0.08 0.08 95 1019.6
20221205205047 32 0 0.0 0.0 0.00 0.08 0.08 95 1019.6
20221205204558 32 0 0.0 0.0 0.00 0.08 0.08 95 1019.6
20221205204045 32 0 0.0 0.0 0.00 0.08 0.08 95 1019.7
20221205203544 32 0 0.0 0.0 0.00 0.08 0.08 95 1019.5
20221205203057 32 0 0.0 0.0 0.00 0.08 0.08 95 1019.7
20221205202546 32 0 0.0 0.0 0.00 0.08 0.08 95 1019.6
20221205202046 32 0 0.0 0.0 0.00 0.08 0.08 95 1019.7
20221205201612 32 0 0.0 0.0 0.00 0.08 0.08 95 1019.7
20221205201044 32 0 0.0 0.0 0.00 0.08 0.08 95 1019.6
20221205200546 32 0 0.0 0.0 0.00 0.08 0.08 95 1019.7
20221205200102 32 0 0.0 0.0 0.00 0.08 0.08 95 1019.7
20221205195546 32 0 0.0 0.0 0.00 0.08 0.08 95 1019.8
20221205195045 32 0 0.0 0.0 0.00 0.08 0.08 95 1019.6
20221205194620 32 0 0.0 0.0 0.00 0.08 0.08 95 1019.6
20221205194045 32 0 0.0 0.0 0.00 0.08 0.08 95 1019.6
20221205193545 32 0 0.0 0.0 0.00 0.08 0.08 95 1019.6
20221205193059 32 0 0.0 0.0 0.00 0.08 0.08 95 1019.6
20221205192546 32 0 0.0 0.0 0.00 0.08 0.08 95 1019.6
20221205192044 32 0 0.0 0.0 0.00 0.08 0.08 95 1019.7
20221205191555 32 0 0.0 2.0 0.00 0.08 0.08 95 1019.6
20221205191045 32 0 0.0 2.0 0.00 0.07 0.07 95 1019.5
20221205190544 32 0 0.0 0.0 0.00 0.07 0.07 95 1019.5
20221205190057 32 0 0.0 0.0 0.00 0.07 0.07 95 1019.4
20221205185545 32 0 0.0 0.0 0.00 0.07 0.07 95 1019.4
20221205185046 32 0 0.0 0.0 0.00 0.07 0.07 95 1019.4
20221205184556 32 0 0.0 0.0 0.00 0.07 0.07 95 1019.4
20221205184048 32 0 0.0 0.0 0.00 0.07 0.07 95 1019.4
20221205183545 32 0 0.0 0.0 0.00 0.07 0.07 95 1019.3
20221205183059 32 0 0.0 0.0 0.00 0.07 0.07 95 1019.3
20221205182545 32 0 0.0 0.0 0.00 0.07 0.07 95 1019.3
20221205182046 32 0 0.0 0.0 0.00 0.07 0.07 95 1019.3
20221205181609 32 0 0.0 0.0 0.00 0.07 0.07 95 1019.2
20221205181044 32 0 0.0 0.0 0.00 0.07 0.07 95 1019.3
20221205180545 32 0 0.0 0.0 0.00 0.07 0.07 95 1019.2
20221205180059 32 0 0.0 0.0 0.00 0.07 0.07 95 1019.3
20221205175545 32 0 0.0 0.0 0.00 0.07 0.07 95 1019.3
20221205175045 32 0 0.0 0.0 0.00 0.07 0.07 95 1019.2
20221205174625 32 0 0.0 0.0 0.00 0.07 0.07 95 1019.1
20221205174047 32 0 0.0 0.0 0.00 0.07 0.07 95 1019.2
20221205173545 32 0 0.0 0.0 0.00 0.07 0.07 95 1019.2
20221205173059 32 0 0.0 0.0 0.00 0.07 0.07 95 1019.1
20221205172545 32 0 0.0 0.0 0.00 0.07 0.07 95 1019.1
20221205172046 32 0 0.0 0.0 0.00 0.07 0.07 95 1019.1
20221205171600 32 0 0.0 0.0 0.00 0.07 0.07 95 1019.2
20221205171046 32 0 0.0 0.0 0.00 0.07 0.07 95 1019.2
20221205170546 32 0 0.0 0.0 0.00 0.07 0.07 95 1019.3
20221205170111 32 0 0.0 0.0 0.00 0.07 0.07 95 1019.3
20221205165545 32 0 0.0 0.0 0.00 0.07 0.07 95 1019.2
20221205165045 32 0 0.0 0.0 0.00 0.07 0.07 95 1019.3
20221205164604 32 0 0.0 0.0 0.00 0.07 0.07 95 1019.3
20221205164045 32 0 0.0 0.0 0.00 0.07 0.07 95 1019.3
20221205163546 32 0 0.0 0.0 0.00 0.07 0.07 95 1019.3
20221205163051 32 0 0.0 0.0 0.00 0.07 0.07 94 1019.3
20221205162545 32 0 0.0 0.0 0.00 0.07 0.07 94 1019.2
20221205162045 32 0 0.0 0.0 0.00 0.07 0.07 94 1019.3
20221205161602 32 0 0.0 0.0 0.00 0.07 0.07 94 1019.4
20221205161045 32 0 0.0 0.0 0.00 0.07 0.07 94 1019.2
20221205160545 32 0 0.0 0.0 0.00 0.07 0.07 94 1019.1
20221205160101 32 0 0.0 0.0 0.00 0.07 0.07 94 1019.1
20221205155541 32 0 0.0 0.0 0.00 0.07 0.07 94 1019.1
20221205155046 32 0 0.0 0.0 0.00 0.07 0.07 94 1019.1
20221205154554 32 0 0.0 0.0 0.00 0.07 0.07 94 1019.1
20221205154042 32 0 0.0 0.0 0.00 0.07 0.07 95 1019.1
20221205153541 32 0 0.0 0.0 0.00 0.07 0.07 94 1019.1
20221205153052 32 0 0.0 0.0 0.00 0.07 0.07 95 1018.9
20221205152546 32 0 0.0 0.0 0.00 0.07 0.07 95 1018.7
20221205152044 32 0 0.0 0.0 0.00 0.07 0.07 95 1018.8
20221205151559 32 0 0.0 0.0 0.00 0.07 0.07 95 1018.8
20221205151042 32 0 0.0 0.0 0.00 0.07 0.07 95 1018.8
20221205150541 32 0 0.0 0.0 0.01 0.07 0.07 95 1018.8
20221205150103 32 0 0.0 0.0 0.00 0.06 0.06 95 1018.8
20221205145544 32 0 0.0 0.0 0.00 0.06 0.06 95 1018.7
20221205145048 32 0 0.0 0.0 0.00 0.06 0.06 94 1018.7
20221205144557 32 0 0.0 0.0 0.00 0.06 0.06 94 1018.6